Location: Unspecified
(0.0000°N, 0.0000°E)
Time: 19:44:29
(UTC+00:00)

Tiros 1 despin weight - Pass Details

Date: 04 June 2022
Orbit: 591 x 639 km, 48.2° (Epoch: 25 June)

Event Time Altitude Azimuth Distance (km) Brightness Sun altitude
Rises 00:48:56 0° 285° (WNW) 2,808 - -64.4°
Reaches altitude 10° 00:52:21 10° 258° (WSW) 1,912 - -64.0°
Maximum altitude 00:54:24 13° 229° (SW) 1,723 - -63.8°
Drops below altitude 10° 00:56:27 10° 201° (SSW) 1,921 - -63.5°
Sets 00:59:55 0° 173° (S) 2,833 - -63.0°
